Regional Weather Roundup
Issued by NWS

Home | Current Version | Previous Version | Graphics & Text | Print | Product List | Glossary On
Versions: 1 2 3 4 5 6 7 8 9 10 11 12 13 14 15 16 17 18 19 20 21 22 23 24 25 26 27 28 29 30 31 32 33 34 35 36 37 38 39 40 41 42 43 44 45 46 47 48 49 50
000
ASUS43 KIND 152100
RWRIN

WEATHER ROUNDUP FOR INDIANA
NATIONAL WEATHER SERVICE INDIANAPOLIS IN
500 PM EDT TUE AUG 15 2017

NOTE: "FAIR" INDICATES FEW OR NO CLOUDS BELOW 12,000 FEET WITH NO
SIGNIFICANT WEATHER AND/OR OBSTRUCTIONS TO VISIBILITY.

* - STATION DOES NOT REPORT WEATHER SUCH AS PRECIPITATION OR FOG.

+ - STATION NOT QUALITY CONTROLLED BY THE NATIONAL WEATHER SERVICE.
    USE DATA WITH CAUTION...ESPECIALLY DEWPOINT AND RELATIVE
    HUMIDITY OBSERVATIONS.

INZ001>003-010>013-019-020-152200-
NORTHWEST INDIANA

CITY           SKY/WX    TMP DP  RH WIND       PRES   REMARKS
GARY /AIRPORT/ MOSUNNY   79  68  69 NE14      29.94S
MICHIGAN CITY+ SUNNY     79  64  61 N8        29.95S
MONTICELLO +   MOSUNNY   86  65  49 W7        29.91F
RENSSELAER +   PTSUNNY   82  61  47 NW3       29.92S

$$

LMZ046-743>745-152200-
SOUTHERN LAKE MICHIGAN

STATION/POSITION TIME  TEMP    WIND        PRES    WAVE
                       AIR SEA DIR/SP/G            HT
                 (UTC) (F)     (DEG/KT/KT) (MB)    (FT)
BURNS HARBOR     2040   75      40/  9/ 10 1014.2S
MICHIGAN CITY    2030   73      10/  8/  9   N/A
5NW MICH CITY    2050   73 74   30/  8/ 10   N/A     1

$$

INZ004-005-014>016-021>024-152200-
NORTH CENTRAL INDIANA

CITY           SKY/WX    TMP DP  RH WIND       PRES   REMARKS
ELKHART        MOSUNNY   82  64  54 N9        29.93S
GOSHEN         SUNNY     85  62  46 NW13      29.92S
SOUTH BEND     MOSUNNY   82  65  56 NW8       29.94S
WARSAW +       MOSUNNY   82  64  54 W13       29.92S

$$

INZ006>009-017-018-025>027-152200-
NORTHEAST INDIANA

CITY           SKY/WX    TMP DP  RH WIND       PRES   REMARKS
FORT WAYNE     PTSUNNY   85  66  53 W9        29.92S
KENDALLVILLE + SUNNY     81  65  57 W7        29.93S

$$

INZ028-029-035-036-043>045-051>053-152200-
WEST CENTRAL INDIANA

CITY           SKY/WX    TMP DP  RH WIND       PRES   REMARKS
LAFAYETTE      MOSUNNY   85  66  53 W8        29.90F
TERRE HAUTE    MOSUNNY   87  68  52 VRB5      29.92F

$$

INZ030>032-037>040-046>048-054>057-064-065-152200-
CENTRAL INDIANA

CITY           SKY/WX    TMP DP  RH WIND       PRES   REMARKS
COLUMBUS       MOSUNNY   84  63  48 W5        29.93S
GREENWOOD *+   MOSUNNY   86  64  48 W5        29.93F
INDIANAPOLIS   PTSUNNY   85  64  49 VRB6      29.91F
-EAGLE CREEK   MOSUNNY   87  65  47 NW6       29.91F
KOKOMO +       MOSUNNY   85  69  58 W10       29.93
MT COMFORT *+  PTSUNNY   86  66  51 SW5       29.93F
SHELBYVILLE    SUNNY     87  67  51 SW7       29.92F

$$

INZ033-034-041-042-049-050-058-059-152200-
EAST CENTRAL INDIANA

CITY           SKY/WX    TMP DP  RH WIND       PRES   REMARKS
MUNCIE         MOSUNNY   88  66  48 NW8       29.93S
RICHMOND +     MOSUNNY   81  66  61 W5        29.95S

$$

INZ060-061-067>069-081>083-085>088-152200-
SOUTHWEST INDIANA

CITY           SKY/WX    TMP DP  RH WIND       PRES   REMARKS
EVANSVILLE     MOSUNNY   86  70  58 NW3       29.91F
HUNTINGBURG *+ PTSUNNY   85  73  67 MISG      29.92F

$$

INZ062-063-066-070>080-084-089>092-152200-
SOUTH CENTRAL AND SOUTHEAST INDIANA

CITY           SKY/WX    TMP DP  RH WIND       PRES   REMARKS
BLOOMINGTON    MOSUNNY   87  67  51 S5        29.93F
MADISON *+     CLOUDY    86  64  48 CALM      29.95F
SEYMOUR +      MOSUNNY   88  68  51 SW6       29.92F

$$





USA.gov is the U.S. government's official web portal to all federal, state and local government web resources and services.